Theta_e
310 311 311 310 308 309 310 310 309 307 308 309 308 308 309 309 306 306 305 305 306 306 306 307 306 306 305 304 303 303 304 305 305 303 300 298 297 296 294 294 294 293 294 294
311 312 310 310 308 309 309 310 309 308 308 309 308 308 309 309 307 306 306 305 305 305 305 304 304 304 304 304 303 303 303 304 305 304 302 301 299 296 293 292 292 292 292 292
312 312 308 309 309 310 309 309 309 311 309 308 307 310 309 309 307 307 306 305 305 306 306 304 302 302 303 303 303 302 302 303 304 304 302 302 299 296 293 291 291 291 291 292
311 309 309 309 310 308 311 307 309 311 310 311 309 315 310 310 308 307 306 306 305 304 305 304 302 300 302 302 302 302 301 302 304 304 304 304 301 297 295 292 291 291 291 291
313 309 309 310 310 307 311 309 309 309 309 310 311 312 311 308 311 309 306 305 306 304 304 304 302 302 301 302 302 301 300 300 301 303 303 302 300 298 296 293 291 290 290 290
309 308 308 309 308 307 306 310 309 308 309 315 312 312 314 312 311 308 306 304 304 303 304 303 302 302 301 301 301 300 299 298 298 300 301 301 300 299 297 292 290 289 289 289
313 312 309 307 310 307 310 311 317 318 317 319 308 311 313 311 307 305 304 302 302 302 302 301 300 299 300 299 299 299 298 297 296 295 296 297 298 297 296 292 290 289 289 289
315 317 311 307 310 312 308 310 317 322 319 315 309 314 314 306 303 301 300 297 295 293 293 295 298 298 298 298 297 297 296 295 293 293 292 292 292 292 292 290 290 290 289 289
313 314 308 306 307 310 311 312 310 314 312 313 314 311 309 306 305 301 298 295 293 292 291 291 291 291 295 296 295 295 295 293 292 291 291 291 291 291 290 290 289 289 288 287
313 315 309 306 306 305 309 308 313 311 320 321 316 314 316 307 308 302 297 294 292 291 290 289 289 289 289 290 291 292 292 291 291 290 289 289 289 288 288 288 287 287 287 287
310 312 312 307 307 309 307 309 309 310 314 319 319 317 310 310 307 302 296 293 291 290 289 289 288 288 288 288 288 288 288 288 288 288 288 287 287 287 287 286 287 287 287 287
308 308 312 311 308 306 307 307 309 315 316 317 316 319 306 306 303 297 293 292 291 291 290 289 288 287 287 287 287 287 287 287 287 287 286 286 286 286 286 287 287 287 287 286
308 310 314 314 311 310 309 307 307 313 314 319 321 318 303 301 297 294 294 293 293 291 288 287 286 286 285 285 285 285 285 286 287 287 287 287 287 287 287 287 286 286 285 286
310 310 314 319 316 312 312 311 308 313 318 319 319 318 310 304 301 295 295 295 292 290 288 286 285 284 284 283 283 283 283 284 284 285 285 285 285 286 286 285 286 286 286 286
310 317 313 315 315 315 315 315 313 313 315 319 318 318 316 311 304 298 297 293 290 289 287 286 285 284 283 282 281 281 281 282 283 283 284 284 284 284 284 285 285 285 285 285
308 317 314 315 314 312 314 314 315 315 315 316 317 318 314 297 301 297 294 292 290 288 286 285 284 283 282 281 280 280 279 279 280 281 281 282 282 282 282 283 283 283 283 283
313 315 317 320 318 318 321 319 317 316 314 315 318 315 296 297 297 294 292 290 287 285 284 283 282 281 281 280 279 279 279 279 279 279 279 279 279 279 279 280 280 280 280 280
317 315 315 320 319 321 315 299 304 312 308 300 298 295 294 292 287 287 286 286 285 284 284 282 281 280 279 278 277 277 277 278 278 278 278 278 278 277 277 277 277 277 277 277
315 318 319 320 319 316 311 298 299 305 300 291 295 290 287 285 284 283 283 283 282 281 281 279 278 278 278 276 276 276 276 276 276 275 275 275 275 275 275 275 275 275 275 275
313 316 318 319 320 320 295 291 290 294 303 288 291 288 287 289 291 284 282 281 280 279 278 277 277 276 276 275 274 275 275 274 274 273 273 273 273 273 273 273 273 274 274 274
312 313 317 319 319 300 284 283 287 303 292 283 283 283 285 283 282 281 280 279 277 277 276 275 275 275 275 274 273 273 273 273 272 272 272 272 272 271 272 272 272 272 272 273
304 304 308 306 313 310 281 285 290 283 281 281 281 282 282 281 280 280 279 278 276 275 275 274 274 274 274 273 272 272 272 272 270 270 271 270 270 270 271 271 271 271 272 272
301 288 291 286 287 280 278 278 278 278 278 278 278 278 280 279 278 278 276 276 275 274 273 273 273 273 273 271 271 271 271 270 269 269 269 269 269 270 270 270 270 271 271 270
281 280 286 284 280 278 277 277 276 276 276 276 276 277 276 277 276 276 275 274 273 273 272 272 272 272 270 270 270 270 269 269 269 268 268 268 269 269 270 269 269 269 269 269
276 277 277 281 279 278 277 276 276 276 276 276 276 275 275 274 274 274 273 272 272 271 271 271 271 270 269 269 269 269 268 268 268 268 268 268 268 268 268 268 268 269 269 270
276 275 274 276 276 277 276 274 275 274 274 274 273 273 273 272 272 271 271 270 270 270 270 269 269 269 268 268 268 268 268 267 267 267 267 267 268 267 267 268 268 268 269 271
Wind_Speed
2 2 6 8 6 2 2 2 5 4 3 3 7 10 19 14 8 10 9 9 9 10 5 18 25 25 25 24 22 21 20 18 18 17 14 10 7 6 5 5 5 5 6 7
3 7 4 3 4 2 2 2 6 6 2 3 7 11 17 21 9 6 5 7 9 7 7 11 23 27 28 28 25 23 21 20 19 17 13 6 8 6 5 5 4 5 5 5
6 1 4 3 3 3 3 5 4 6 5 2 6 8 6 4 3 4 4 4 6 11 10 8 14 25 29 29 28 25 22 20 18 17 15 9 9 7 8 7 5 5 5 4
5 1 4 3 4 7 3 5 3 2 3 3 4 7 6 7 10 6 7 4 5 7 6 7 11 19 30 30 25 22 19 18 18 17 16 14 13 10 9 9 7 6 5 4
6 6 4 5 7 7 5 2 2 1 2 3 2 0 8 3 6 5 6 1 2 5 8 9 10 18 23 26 25 21 19 17 16 17 16 15 13 10 9 11 10 8 6 4
6 1 5 6 2 4 5 3 4 3 2 1 5 6 5 4 2 5 5 5 6 4 5 6 10 16 20 20 21 20 19 17 14 14 15 15 14 13 13 14 12 9 6 4
2 4 2 3 3 1 3 4 3 4 2 6 4 2 8 4 3 3 4 7 7 7 6 6 7 10 18 22 22 20 19 17 14 12 11 12 12 12 12 13 12 10 8 5
4 7 8 5 6 7 6 7 5 6 4 5 2 7 6 3 5 6 7 6 8 8 7 8 6 8 13 17 16 15 14 12 11 9 7 7 7 7 9 9 10 9 8 6
6 6 2 3 2 3 4 5 2 1 2 2 5 7 5 4 4 4 6 7 7 7 8 9 12 16 12 10 10 10 11 9 8 6 4 4 4 5 6 6 7 7 6 5
3 5 2 2 2 2 3 3 3 2 4 6 6 6 7 7 8 5 5 5 5 6 8 9 11 15 17 15 12 12 8 7 6 5 3 3 2 3 3 4 4 4 4 3
4 4 3 4 7 9 2 2 2 2 4 5 5 7 6 7 8 10 7 6 5 5 7 8 10 15 17 18 16 18 16 14 11 8 6 6 5 5 4 4 4 3 2 3
6 5 6 12 3 2 4 9 10 6 7 5 3 18 3 2 5 9 9 8 6 7 7 8 11 13 14 14 17 16 16 15 14 11 8 7 5 5 4 3 2 3 6 5
7 4 4 8 2 3 5 5 5 2 2 19 7 10 1 5 6 7 11 9 10 9 8 6 9 11 12 16 14 16 14 11 8 7 4 2 1 1 2 3 3 5 6 7
7 6 8 17 12 4 5 7 7 12 8 8 20 22 8 8 10 8 10 10 10 9 10 8 6 9 13 14 13 12 13 11 8 7 5 4 3 2 2 2 4 6 9 10
7 18 10 19 20 15 18 19 12 15 17 11 21 18 21 14 17 16 13 12 12 10 8 7 6 7 10 11 11 11 10 9 7 6 5 6 6 5 4 4 5 6 8 8
4 14 9 19 13 13 19 25 22 24 25 21 24 30 21 5 10 11 13 13 11 10 8 6 6 8 9 9 9 9 9 9 7 7 8 8 7 7 7 6 6 6 6 7
6 5 6 16 16 16 17 27 27 24 19 19 22 29 6 6 10 11 11 11 10 9 7 6 6 7 9 8 7 7 6 6 8 9 8 8 9 9 10 10 10 11 11 11
12 12 4 10 10 16 10 3 2 16 10 3 4 4 7 12 11 11 9 12 10 8 7 6 6 6 6 5 6 6 6 6 6 7 7 8 9 11 11 11 12 13 14 15
20 18 9 10 16 17 4 5 4 1 2 7 4 10 13 14 13 9 8 10 10 7 7 8 5 3 4 5 6 7 6 6 6 6 9 11 12 12 13 15 15 16 16 16
14 22 16 14 17 20 6 6 13 5 2 12 6 6 9 3 2 3 6 6 7 9 7 6 4 3 4 8 9 8 6 5 6 10 15 14 14 15 16 17 17 17 16 19
5 6 16 20 14 5 8 16 11 2 4 8 10 8 7 4 3 8 7 8 8 7 4 5 5 4 4 9 10 10 7 9 11 15 15 14 16 17 17 16 17 19 20 21
4 6 5 7 6 4 20 5 6 1 7 8 9 8 10 9 7 7 7 6 5 5 5 8 9 9 7 12 13 10 9 12 17 16 15 18 18 17 13 16 18 19 18 19
4 4 4 5 3 4 8 7 9 9 5 7 9 10 8 7 7 6 5 5 5 6 8 10 9 9 12 15 11 9 14 18 16 16 18 19 18 16 15 18 16 14 16 21
10 15 4 3 5 6 11 7 9 9 8 8 8 8 8 7 5 5 4 5 7 8 11 11 10 11 17 14 12 14 17 15 15 19 19 19 18 17 17 17 17 16 19 22
5 8 8 2 5 4 8 9 7 8 8 8 7 6 7 7 7 7 6 7 9 12 13 14 12 14 15 17 18 19 16 16 18 18 18 18 17 19 19 18 18 18 20 20
8 5 4 3 9 4 4 8 12 9 10 9 10 10 10 9 8 10 6 10 11 14 14 15 16 15 17 20 21 21 18 17 17 17 14 15 17 19 17 17 21 20 19 21
Wind_Direction
8 75 223 222 202 171 150 198 251 253 266 269 234 268 283 286 230 253 248 226 210 208 177 191 195 191 187 187 184 185 181 181 182 176 166 167 161 144 135 121 111 105 97 91
17 237 220 118 142 144 153 247 262 283 280 196 304 277 277 282 265 234 236 227 207 166 167 172 182 186 187 185 187 187 188 187 190 189 180 174 180 183 170 148 139 120 112 103
187 245 118 135 157 183 219 198 229 238 332 267 322 282 307 295 272 274 243 228 198 187 178 169 169 182 189 190 189 190 190 191 192 190 191 184 177 179 186 178 167 151 135 125
232 259 173 180 230 155 270 206 171 254 36 255 4 289 304 290 300 272 270 212 211 182 166 154 165 176 190 194 191 190 191 193 194 195 203 206 201 194 203 196 191 176 163 147
254 169 185 197 218 163 224 105 138 96 155 9 277 187 268 311 304 343 344 299 170 187 173 169 177 179 189 190 188 186 187 194 198 203 209 210 208 208 201 198 193 186 176 162
245 302 188 211 128 166 134 97 61 60 100 316 216 170 273 231 227 312 2 63 56 87 102 107 138 163 179 185 184 184 184 189 197 205 211 216 219 217 204 195 194 188 184 180
281 222 224 168 126 50 126 71 318 326 0 230 147 178 242 239 320 288 328 70 46 49 74 103 122 141 168 175 179 182 183 184 191 206 217 223 228 226 217 207 202 198 200 205
207 307 182 178 201 184 179 170 168 246 227 262 128 238 247 131 86 75 67 74 55 44 40 48 60 122 154 167 171 173 179 181 185 190 214 223 223 219 214 213 208 211 213 223
179 266 154 189 151 151 179 184 196 165 117 352 226 284 276 141 111 87 79 67 56 49 48 51 49 51 89 124 145 160 167 174 168 167 186 192 196 200 205 204 204 212 215 212
220 291 194 141 114 42 166 164 79 11 248 245 270 269 239 224 202 157 124 95 75 64 60 58 56 59 66 80 96 103 113 113 115 121 134 139 150 150 158 173 175 178 179 197
157 167 241 130 196 185 129 217 216 177 172 213 266 260 215 218 183 170 144 119 96 77 69 66 64 64 68 75 73 82 84 88 92 101 110 118 115 119 129 140 145 159 200 274
210 172 234 217 237 194 193 203 179 205 234 238 256 264 7 62 122 131 133 127 110 101 84 81 77 70 69 68 68 73 75 67 71 74 82 92 112 127 139 155 214 238 255 234
186 218 309 309 24 14 229 210 217 314 10 243 238 253 112 111 118 138 144 147 142 124 100 81 75 75 68 66 62 68 67 65 63 74 77 81 24 344 315 291 267 238 211 238
158 189 204 254 250 148 208 221 211 220 239 245 234 262 214 201 182 168 161 153 139 132 120 110 91 79 77 70 63 56 58 54 51 54 54 53 36 12 347 236 283 259 263 268
181 256 231 256 260 258 259 258 231 229 235 242 261 241 255 216 195 183 159 143 142 134 117 111 103 88 85 73 65 54 50 46 43 53 55 41 28 15 1 339 288 284 280 274
203 247 222 255 260 241 253 253 246 246 249 250 252 260 265 58 126 152 156 149 142 123 113 106 97 93 78 72 59 49 38 30 30 34 33 27 19 8 3 353 338 312 302 306
186 231 198 259 270 261 252 246 246 247 243 234 244 252 127 154 145 143 138 127 120 111 111 105 93 83 84 72 53 33 19 18 26 28 23 20 11 5 358 345 331 321 322 315
232 230 241 262 264 247 250 17 272 224 248 18 40 68 78 112 87 80 82 109 107 106 106 91 86 96 96 80 57 32 20 13 25 27 17 6 356 348 338 329 321 318 319 312
232 241 252 251 242 257 264 14 11 139 7 355 105 105 108 106 86 65 68 82 88 83 78 92 66 57 82 54 19 14 22 22 26 13 357 348 336 327 323 318 319 316 314 310
246 237 238 244 259 264 44 343 337 301 215 3 61 101 123 126 137 92 81 70 74 77 66 62 30 39 41 19 6 359 355 353 0 347 336 328 322 321 318 318 314 310 307 306
332 291 246 238 244 111 339 307 297 160 2 4 38 31 56 79 48 99 92 79 61 55 31 16 8 0 8 359 348 341 331 344 338 329 321 314 315 317 314 311 308 306 305 300
319 315 321 326 308 240 353 346 36 299 44 31 30 39 80 88 71 81 69 65 44 13 353 352 346 336 334 340 335 326 320 323 320 316 311 312 314 308 306 303 303 305 303 298
302 337 321 9 26 12 5 40 14 31 52 32 35 22 26 48 50 41 45 35 6 346 335 334 326 315 319 326 327 312 310 315 316 309 305 310 308 303 302 303 301 300 297 293
11 17 35 233 17 21 28 23 27 24 34 34 33 26 28 19 8 3 6 358 345 326 316 320 313 308 310 317 312 305 306 309 305 304 304 302 303 305 301 297 301 296 291 293
342 334 324 103 32 313 55 23 11 17 18 25 25 21 17 0 349 344 339 333 321 315 314 315 305 301 299 309 306 308 311 312 302 298 297 299 296 301 305 302 297 293 294 289
356 346 356 331 335 285 5 6 8 14 8 1 0 353 354 354 334 324 307 304 303 299 308 306 302 294 293 303 308 310 310 302 296 293 291 292 296 297 295 292 293 295 290 292